This is the latest recevied weather packets stored in our database for station/object OK1OBR-13. If no packets are shown the sender has not sent any weather packets the latest 1 day(s).
| Time | Temp. | Humidity | Pressure | Rain* | Wind** | Luminosity | Snow |
|---|---|---|---|---|---|---|---|
| 1777944301 | 13.89° C | 53% | 933.3 hPa | 0 mm | 0.45 m/s, 32° | - | - |
| 1777944241 | 13.89° C | 53% | 933.1 hPa | 0 mm | 0.45 m/s, 27° | - | - |
| 1777944181 | 13.89° C | 53% | 932.9 hPa | 0 mm | 0.45 m/s, 24° | - | - |
| 1777944121 | 13.89° C | 53% | 932.9 hPa | 0 mm | 0.45 m/s, 26° | - | - |
| 1777944061 | 13.89° C | 53% | 933.1 hPa | 0 mm | 0.45 m/s, 18° | - | - |
| 1777944001 | 13.89° C | 53% | 933.1 hPa | 0 mm | 0.45 m/s, 18° | - | - |
| 1777943941 | 13.89° C | 53% | 933 hPa | 0 mm | 0.45 m/s, 26° | - | - |
| 1777943882 | 13.89° C | 53% | 933.2 hPa | 0 mm | 0.45 m/s, 18° | - | - |
| 1777943821 | 13.89° C | 53% | 933.1 hPa | 0 mm | 0.45 m/s, 12° | - | - |
| 1777943761 | 13.89° C | 53% | 933.2 hPa | 0 mm | 0.45 m/s, 1° | - | - |
| 1777943701 | 13.89° C | 53% | 933.1 hPa | 0 mm | 0.45 m/s, 353° | - | - |
| 1777943641 | 13.89° C | 53% | 933 hPa | 0 mm | 0.45 m/s, 354° | - | - |
| 1777943581 | 13.89° C | 53% | 933 hPa | 0 mm | 0.45 m/s, 354° | - | - |
| 1777943520 | 13.89° C | 53% | 933 hPa | 0 mm | 0.45 m/s, 3° | - | - |
| 1777943461 | 13.89° C | 53% | 932.9 hPa | 0 mm | 0.45 m/s, 12° | - | - |
| 1777943401 | 13.89° C | 52% | 933 hPa | 0 mm | 0.45 m/s, 21° | - | - |
| 1777943341 | 13.89° C | 52% | 933.2 hPa | 0 mm | 0.45 m/s, 22° | - | - |
| 1777943281 | 13.89° C | 52% | 933.2 hPa | 0 mm | 0.45 m/s, 13° | - | - |
| 1777943221 | 14.44° C | 52% | 933.1 hPa | 0 mm | 0 m/s | - | - |
| 1777943161 | 14.44° C | 52% | 933.3 hPa | 0 mm | 0 m/s | - | - |
| 1777943101 | 14.44° C | 52% | 933.2 hPa | 0 mm | 0.45 m/s, 334° | - | - |
| 1777943041 | 14.44° C | 52% | 933.3 hPa | 0 mm | 0.45 m/s, 324° | - | - |
| 1777942981 | 14.44° C | 52% | 933.4 hPa | 0 mm | 0.45 m/s, 324° | - | - |
| 1777942921 | 14.44° C | 52% | 933 hPa | 0 mm | 0.45 m/s, 323° | - | - |
| 1777942861 | 14.44° C | 52% | 933.3 hPa | 0 mm | 0.45 m/s, 327° | - | - |
* Rain since midnight (hover to see other rain measurements)
** Current wind speed in m/s (hover to see current wind gust speed)